Weather in Gumuldur

Turkey     38°03′20″N   27°02′34″E
temp.,
°C
wind,
m/s
gust,
m/s
humid.,
%
clouds,
%
prec.,
mm/h
press.,
hPa
HPBL,
m
23 april, fri
fri2300:00+16nne22567 0.0 102167
03:00+15nne115183 0.0 102082
06:00+15ene225018 0.0 101987
09:00+16e124724 0.0 1020178
12:00+17sw32498 0.0 1020276
15:00+19wsw33444 0.0 1019278
18:00+19wnw445749 0.0 1018166
21:00+18n226473 0.0 101828
24 april, sat
sat2400:00+17ne226257 0.0 101827
03:00+17ne2262100 0.0 101734
06:00+16nne2262100 0.0 101650
09:00+18nnw2264100 0.0 1017104
12:00+19ne1260100 0.0 1015161
15:00+20wnw3462100 0.0 1014201
18:00+19n6868100 0.1 1012148
21:00+17n3478100 0.1 1013109
25 april, sun
sun2500:00+17ne2381100 0.0 101181
03:00+16nnw3478100 0.0 1010153
06:00+16nne227598 0.0 1009122
09:00+17ne127199 0.0 1009199
12:00+19wnw4568100 0.0 1009302
15:00+20nw776469 0.3 1007541
18:00+19nnw78694 1.7 1007379
21:00+16nnw66761 2.8 1009254
26 april, mon
mon2600:00+13n45801 0.0 1011317
03:00+13n45818 0.0 1011311
06:00+12n45797 0.0 1012344
09:00+14n466953 0.0 1014904
12:00+17nne46550 0.0 1014963
15:00+20n45540 0.0 1013321
18:00+19n68530 0.0 1013336
21:00+16nne45650 0.0 1014141
27 april, tue
tue2700:00+14n336599 0.0 1014133
03:00+13nne33670 0.0 1015152
06:00+13nne226860 0.0 1014125
09:00+15nne115995 0.0 1015233
12:00+16sw3260100 0.0 1014282
15:00+18wsw435733 0.0 1013258
18:00+18wnw566373 0.0 1014183
21:00+17ese1166100 0.0 101312